"Time","Temp","Dewpoint","Humidity","Pressure","Direction","Speed","Gust","Precip","PrecipRate"
"00:04:58","51.2","41.1","68.3","30.05","352","2.9","9.2","0.00","0.00"
"00:09:56","51.1","41.3","69","30.05","337","4.4","10.8","0.00","0.00"
"00:14:57","51","41.5","69.8","30.05","322","2.1","7.2","0.00","0.00"
"00:19:56","50.8","41.5","70.2","30.05","335","3.2","7.2","0.00","0.00"
"00:24:59","50.7","41.6","71.1","30.05","3","2.8","7.2","0.00","0.00"
"00:29:59","50.5","41.6","71.3","30.05","336","2","6","0.00","0.00"
"00:34:57","50.4","41.4","71.3","30.05","345","3.8","12","0.00","0.00"
"00:39:57","50.3","41.1","70.5","30.05","310","3.9","13.2","0.00","0.00"
"00:44:57","50.3","41.1","70.7","30.05","346","4.7","13.2","0.00","0.00"
"00:49:56","50.3","40.9","70","30.05","334","6.5","16.1","0.00","0.00"
"00:54:59","50.3","41.1","70.6","30.05","331","3.8","12","0.00","0.00"
"00:59:58","50.3","40.9","70.1","30.06","340","5","12","0.00","0.00"
"01:04:57","50.3","40.9","70","30.06","340","3.2","11.5","0.00","0.00"
"01:09:55","50.3","41.1","70.5","30.06","329","1.8","7.2","0.00","0.00"
"01:14:56","50.2","41.2","71.1","30.06","343","2.7","8.4","0.00","0.00"
"01:19:59","50.1","41.3","71.6","30.06","309","3.5","10.8","0.00","0.00"
"01:24:58","50.1","41.1","71","30.06","344","3.8","10.4","0.00","0.00"
"01:29:57","50.1","41","70.9","30.07","343","3.2","7.2","0.00","0.00"
"01:34:57","50","40.8","70.4","30.07","352","4.4","12","0.00","0.00"
"01:39:57","50","40.4","69.7","30.07","340","3.3","10.4","0.00","0.00"
"01:44:57","49.9","40.4","69.8","30.07","349","3.1","13.2","0.00","0.00"
"01:49:56","49.8","40","69","30.06","347","4.5","12.7","0.00","0.00"
"01:54:59","49.7","40.1","69.5","30.06","329","3.6","10.4","0.00","0.00"
"01:59:58","49.6","40","69.4","30.07","310","3.8","12","0.00","0.00"
"02:04:58","49.6","39.7","68.8","30.07","335","5.1","15","0.00","0.00"
"02:09:56","49.5","39.7","68.9","30.07","355","2.7","8.1","0.00","0.00"
"02:14:56","49.4","39.5","68.7","30.07","328","4.3","12","0.00","0.00"
"02:19:59","49.3","39.3","68.2","30.07","330","3.2","12","0.00","0.00"
"02:24:59","49.2","39.4","68.7","30.07","317","2","6","0.00","0.00"
"02:29:58","49.1","39","68.2","30.07","335","3.7","8.4","0.00","0.00"
"02:34:58","49","39","68.2","30.07","329","3.4","13.2","0.00","0.00"
"02:39:58","48.9","38.6","67.4","30.07","346","4.5","12","0.00","0.00"
"02:44:57","48.8","38.6","67.5","30.07","334","2.9","8.4","0.00","0.00"
"02:49:56","48.7","38.4","67.5","30.07","342","3.1","12","0.00","0.00"
"02:54:56","48.7","38.2","67","30.07","319","3.2","10.8","0.00","0.00"
"02:59:59","48.6","37.7","66","30.08","333","4.4","13.2","0.00","0.00"
"03:04:58","48.5","37.7","66","30.08","345","3.6","8.1","0.00","0.00"
"03:09:56","48.5","37.8","66.3","30.08","315","3.4","8.4","0.00","0.00"
"03:14:56","48.4","37.8","66.7","30.09","340","2","7.2","0.00","0.00"
"03:19:59","48.3","37.9","67.4","30.09","350","2.2","8.4","0.00","0.00"
"03:24:59","48.2","37.8","67.2","30.09","323","3","8.4","0.00","0.00"
"03:29:58","48.1","37.7","67","30.09","342","3.7","12","0.00","0.00"
"03:34:57","48","37.3","66.3","30.09","327","3.8","10.8","0.00","0.00"
"03:39:58","48","37.4","66.6","30.09","325","2.2","8.4","0.00","0.00"
"03:44:57","47.9","37.5","67","30.10","313","2","4.8","0.00","0.00"
"03:49:56","47.8","37.4","67.2","30.10","351","2.1","6","0.00","0.00"
"03:54:57","47.7","37.1","66.5","30.10","330","4.7","12","0.00","0.00"
"03:59:56","47.7","37.3","67.2","30.10","324","1.8","4.8","0.00","0.00"
"04:04:57","47.6","37.1","66.7","30.10","338","4.1","15","0.00","0.00"
"04:09:59","47.5","36.7","65.9","30.10","345","2.9","9.6","0.00","0.00"
"04:14:56","47.5","36.2","64.7","30.11","332","3.6","8.1","0.00","0.00"
"04:19:57","47.4","35.8","64","30.11","339","3.4","8.4","0.00","0.00"
"04:24:59","47.4","36","64.6","30.11","352","0.9","6","0.00","0.00"
"04:29:59","47.2","35.4","63.4","30.11","334","2.6","7.2","0.00","0.00"
"04:34:59","47.2","34.4","61","30.11","343","4.8","12","0.00","0.00"
"04:39:59","47.1","34.1","60.3","30.11","340","4.5","11.5","0.00","0.00"
"04:44:59","47","33.4","58.9","30.12","318","3.6","8.4","0.00","0.00"
"04:49:58","47","33","58.1","30.12","351","3.6","10.8","0.00","0.00"
"04:54:57","46.9","32.6","57.4","30.12","336","3.4","7.2","0.00","0.00"
"04:59:56","46.8","32.3","56.8","30.12","325","3.4","7.2","0.00","0.00"
"05:04:56","46.7","32.4","57.3","30.12","350","2.4","6","0.00","0.00"
"05:09:58","46.6","32","56.4","30.12","342","3","8.4","0.00","0.00"
"05:14:59","46.5","32","56.8","30.12","327","2.2","7.2","0.00","0.00"
"05:19:58","46.4","32","57","30.12","326","2.3","6","0.00","0.00"
"05:24:57","46.3","31.7","56.7","30.12","321","3.2","7.2","0.00","0.00"
"05:29:56","46.1","31.7","56.9","30.12","326","3.7","8.4","0.00","0.00"
"05:34:56","46.1","31.6","56.8","30.12","347","3.9","8.4","0.00","0.00"
"05:39:57","46","31.6","57.1","30.12","345","3.5","13.2","0.00","0.00"
"05:44:57","45.8","31.7","57.5","30.12","324","2.9","7.2","0.00","0.00"
"05:49:56","45.6","31.8","58.1","30.12","8","2.2","4.8","0.00","0.00"
"05:54:59","45.4","31.8","58.7","30.12","12","1.7","4.8","0.00","0.00"
"05:59:59","45.2","31.7","59","30.14","0","2.3","8.4","0.00","0.00"
"06:04:59","45","31.9","59.9","30.14","355","1.3","5.8","0.00","0.00"
"06:09:58","44.8","32","60.5","30.14","355","1.3","4.8","0.00","0.00"
"06:14:58","44.6","32.2","61.5","30.14","351","1","3.6","0.00","0.00"
"06:19:56","44.3","32.1","61.8","30.14","345","2","7.2","0.00","0.00"
"06:24:58","44.1","32.1","62.3","30.14","328","2.1","9.6","0.00","0.00"
"06:29:57","44","31.9","62.3","30.14","328","2.8","6","0.00","0.00"
"06:34:57","43.8","32","62.8","30.14","334","2.4","4.8","0.00","0.00"
"06:39:58","43.7","32.1","63.5","30.14","300","1.8","4.8","0.00","0.00"
"06:44:58","43.5","32.1","63.8","30.14","296","0.3","2.3","0.00","0.00"
"06:49:57","43.4","32.1","64.2","30.14","296","0","0","0.00","0.00"
"06:54:57","43.2","32.3","65.3","30.14","296","0","0","0.00","0.00"
"06:59:56","42.9","32.4","66.2","30.15","296","0.4","3.6","0.00","0.00"
"07:04:56","42.6","32.2","66.4","30.15","294","1.5","3.6","0.00","0.00"
"07:09:58","42.4","32.3","67.1","30.15","293","0.7","3.6","0.00","0.00"
"07:14:59","42.2","32.5","68.1","30.15","293","0.8","3.6","0.00","0.00"
"07:19:59","42","32.5","68.8","30.15","293","0.5","2.4","0.00","0.00"
"07:24:59","41.7","32.3","69","30.15","293","0.6","3.6","0.00","0.00"
"07:29:58","41.5","32.3","69.5","30.16","293","0.9","3.5","0.00","0.00"
"07:34:58","41.3","32.2","70","30.16","293","0.2","2.4","0.00","0.00"
"07:39:58","41.1","32.2","70.3","30.16","293","0.1","2.3","0.00","0.00"
"07:44:58","41","32.3","71","30.16","289","0.2","2.4","0.00","0.00"
"07:49:58","40.9","32.5","71.7","30.16","282","0.4","2.4","0.00","0.00"
"07:54:58","40.8","32.5","71.9","30.16","296","0.9","4.8","0.00","0.00"
"07:59:58","40.9","32.6","72","30.16","331","1.1","4.8","0.00","0.00"
"08:04:58","41","32.6","71.9","30.16","336","1.5","4.6","0.00","0.00"
"08:09:58","41.1","32.6","71.6","30.16","336","1.9","3.6","0.00","0.00"
"08:14:56","41.2","32.6","71.2","30.17","319","2.4","4.8","0.00","0.00"
"08:19:58","41.4","32.7","71","30.17","317","1.4","3.6","0.00","0.00"
"08:24:57","41.6","32.9","71.2","30.17","335","3.1","7.2","0.00","0.00"
"08:29:56","41.9","33","70.5","30.17","347","3.3","8.4","0.00","0.00"
"08:34:59","42.2","32.9","69.5","30.17","337","4.1","8.4","0.00","0.00"
"08:39:55","42.6","33.2","69.4","30.17","315","2.9","8.1","0.00","0.00"
"08:44:59","42.9","33.3","68.8","30.17","292","2.1","6","0.00","0.00"
"08:49:58","43.2","33.5","68.4","30.17","284","2","7.2","0.00","0.00"
"08:54:57","43.8","33.8","67.6","30.17","354","2.3","7.2","0.00","0.00"
"08:59:56","44.6","34","66.1","30.18","334","4.2","8.4","0.00","0.00"
"09:04:56","45.1","34.5","66.2","30.18","319","3.1","10.8","0.00","0.00"
"09:09:58","45.6","34.6","65.1","30.18","343","4","12","0.00","0.00"
"09:14:59","46","34.7","64.5","30.18","350","3.7","8.4","0.00","0.00"
"09:19:58","45.5","34.1","64.4","30.17","338","4.5","8.4","0.00","0.00"
"09:24:57","45","34","65.4","30.17","354","3","7.2","0.00","0.00"
"09:29:56","44.6","33.8","65.4","30.17","334","1.9","6.9","0.00","0.00"
"09:34:56","44.4","33.8","66.2","30.17","350","2.6","6","0.00","0.00"
"09:39:56","44.2","33.7","66.3","30.17","346","3.3","9.6","0.00","0.00"
"09:44:56","44","33.5","66.1","30.17","346","3.8","9.2","0.00","0.00"
"09:49:59","44","33.8","67.3","30.17","358","0.8","4.8","0.00","0.00"
"09:54:58","44.1","34.1","67.7","30.17","344","1.6","4.8","0.00","0.00"
"09:59:57","44.1","33.9","67.4","30.17","340","0.8","4.6","0.00","0.00"
"10:04:57","44.5","34.5","67.6","30.17","340","0.4","3.6","0.00","0.00"
"10:09:59","45.5","35.4","67.5","30.17","348","2.4","7.2","0.00","0.00"
"10:14:59","46.7","35.5","64.8","30.17","346","2.7","7.2","0.00","0.00"
"10:19:58","46.8","35.5","64.7","30.16","329","1.9","6.9","0.00","0.00"
"10:24:58","46.7","35","63.5","30.16","24","2.5","8.4","0.00","0.00"
"10:29:56","46.5","34.5","62.8","30.16","64","1.7","4.8","0.00","0.00"
"10:34:56","46.6","34.9","63.7","30.16","6","2","9.6","0.00","0.00"
"10:39:56","46.9","35.2","63.6","30.16","354","1.6","7.2","0.00","0.00"
"10:44:59","47.9","34.9","60.5","30.16","67","2.4","6","0.00","0.00"
"10:49:58","48.4","34.6","58.8","30.16","8","2.8","6","0.00","0.00"
"10:54:57","49.1","34.7","57.5","30.16","348","2.5","6","0.00","0.00"
"10:59:56","50","35.3","56.8","30.16","32","1.9","6","0.00","0.00"
"11:04:56","50.4","35.3","56","30.15","90","3.6","8.4","0.00","0.00"
"11:09:58","50","34.9","56","30.15","82","3.5","8.1","0.00","0.00"
"11:14:59","49.5","34","54.9","30.15","46","2.2","6","0.00","0.00"
"11:19:58","49.3","34.1","55.6","30.14","80","3.1","6","0.00","0.00"
"11:24:57","50.5","35.1","55.2","30.14","36","1.5","4.8","0.00","0.00"
"11:29:56","51.6","35","53.1","30.14","28","1.8","4.8","0.00","0.00"
"11:34:56","51.3","34.2","51.8","30.14","346","4","10.8","0.00","0.00"
"11:39:56","50.5","33.3","51.6","30.14","327","4.2","8.4","0.00","0.00"
"11:44:59","50.2","33.1","51.8","30.14","316","2.4","6","0.00","0.00"
"11:49:56","51.5","35.1","53.4","30.13","326","1.5","4.8","0.00","0.00"
"11:54:56","52","35.2","52.6","30.13","44","3.1","9.6","0.00","0.00"
"11:59:59","51.7","34.5","51.8","30.13","69","3.4","13.2","0.00","0.00"
"12:04:59","51.6","34.5","51.9","30.12","62","3.3","6","0.00","0.00"
"12:09:57","51.5","34.9","53","30.12","90","3.7","10.8","0.00","0.00"
"12:14:58","51.6","34.2","51.4","30.12","42","3","7.2","0.00","0.00"
"12:19:57","51.5","34.9","53.1","30.12","54","2.1","7.2","0.00","0.00"
"12:24:57","52.5","35","51.2","30.12","13","3.5","8.4","0.00","0.00"
"12:29:59","51.9","33","48.5","30.12","323","4.3","9.6","0.00","0.00"
"12:34:57","52.1","34.1","50.2","30.11","300","3.9","13.2","0.00","0.00"
"12:39:58","52.1","33.1","48.3","30.11","322","4.5","12.7","0.00","0.00"
"12:44:58","52.6","34","49.1","30.11","330","3","7.2","0.00","0.00"
"12:49:56","52.3","32.3","46.4","30.11","321","2.8","8.4","0.00","0.00"
"12:54:56","50.2","31.1","47.6","30.11","331","3.3","8.4","0.00","0.00"
"12:59:58","49.7","31.2","48.7","30.11","341","0.5","4.8","0.00","0.00"
"13:04:58","49.5","32.2","51","30.11","340","1.2","3.6","0.00","0.00"
"13:09:56","50","32.7","51.3","30.11","321","1.9","6","0.00","0.00"
"13:14:57","50.7","33.2","51","30.11","346","1","5.8","0.00","0.00"
"13:19:56","51","33.5","51","30.09","51","2.2","6","0.00","0.00"
"13:24:59","51.1","33.6","51","30.09","341","3","7.2","0.00","0.00"
"13:29:58","51","33.4","50.9","30.09","341","1.8","5.8","0.00","0.00"
"13:34:57","50.9","34","52.3","30.09","5","1.3","6","0.00","0.00"
"13:39:58","51","33.7","51.3","30.09","320","1.1","4.6","0.00","0.00"
"13:44:57","51","33.4","50.7","30.09","330","2.4","7.2","0.00","0.00"
"13:49:56","50.7","32.6","49.8","30.08","345","1.5","4.8","0.00","0.00"
"13:54:59","50.1","32.7","50.9","30.08","54","2.4","4.8","0.00","0.00"
"13:59:58","49.9","32.9","51.7","30.08","63","0.8","3.6","0.00","0.00"
"14:04:57","50.1","32.6","50.9","30.07","39","1.5","3.6","0.00","0.00"
"14:09:59","50.1","32.6","50.9","30.07","66","1.4","4.8","0.00","0.00"
"14:14:56","49.9","31.9","49.7","30.07","83","2.7","4.8","0.00","0.00"
"14:19:59","50","32","49.8","30.06","99","3","7.2","0.00","0.00"
"14:24:58","49.9","31.8","49.5","30.06","112","3.7","7.2","0.00","0.00"
"14:29:57","49.9","32","50.1","30.06","97","1.8","3.6","0.00","0.00"
"14:34:56","50","33.1","52.2","30.06","323","1.5","3.6","0.00","0.00"
"14:39:56","50.1","32","49.6","30.06","349","1.8","4.8","0.00","0.00"
"14:44:56","50.1","31.4","48.5","30.06","0","1.6","3.6","0.00","0.00"
"14:49:58","50","32","49.8","30.05","5","1","3.6","0.00","0.00"
"14:54:58","50.1","31.9","49.4","30.05","5","1.7","3.6","0.00","0.00"
"14:59:56","50.3","33.1","51.5","30.05","26","1.6","4.8","0.00","0.00"
"15:04:56","50.5","32.2","49.2","30.05","30","1","2.4","0.00","0.00"
"15:09:58","50.7","32.2","49","30.05","353","1.4","6","0.00","0.00"
"15:14:58","50.7","32","48.7","30.05","357","1.9","4.8","0.00","0.00"
"15:19:57","50.5","32.1","49.2","30.04","49","2.1","4.8","0.00","0.00"
"15:24:57","50.4","32.2","49.6","30.04","69","1.5","3.5","0.00","0.00"
"15:29:56","50.4","31.8","48.7","30.05","69","0.4","2.4","0.00","0.00"
"15:34:59","50.4","31.5","48.2","30.05","69","0.6","1.2","0.00","0.00"
"15:39:59","50.5","32.2","49.6","30.05","69","0.9","3.6","0.00","0.00"
"15:44:59","50.6","32","48.8","30.05","69","2.1","3.6","0.00","0.00"
"15:49:57","50.8","32.4","49.2","30.03","69","1.1","3.5","0.00","0.00"
"15:54:56","51","31.9","48","30.03","72","1.2","4.8","0.00","0.00"
"15:59:59","51.2","32.9","49.3","30.03","74","1.4","3.6","0.00","0.00"
"16:04:58","51.4","32.9","49.1","30.03","76","1.4","3.6","0.00","0.00"
"16:09:56","51.5","32.3","47.6","30.03","78","1","3.5","0.00","0.00"
"16:14:56","51.3","32","47.5","30.03","77","1","2.4","0.00","0.00"
"16:19:59","51.2","33","49.7","30.03","82","0.9","3.6","0.00","0.00"
"16:24:58","50.9","31.9","48","30.03","88","1.7","3.6","0.00","0.00"
"16:29:56","50.6","31.7","48.2","30.03","88","1.4","3.6","0.00","0.00"
"16:34:59","50.5","31.8","48.7","30.03","88","1.4","3.6","0.00","0.00"
"16:39:59","50.4","31.7","48.6","30.03","88","0.7","3.5","0.00","0.00"
"16:44:58","50.2","31.4","48.3","30.03","88","1.4","3.6","0.00","0.00"
"16:49:57","50.2","32","49.5","30.02","88","1.8","3.6","0.00","0.00"
"16:54:56","50.1","31.9","49.4","30.02","88","1.2","2.4","0.00","0.00"
"16:59:58","50.1","32.9","51.5","30.02","88","0.1","1.2","0.00","0.00"
"17:04:58","50.1","33.3","52.3","30.02","88","0","0","0.00","0.00"
"17:09:56","50.2","33","51.5","30.02","88","0","1.2","0.00","0.00"
"17:14:56","50.2","32.3","50.1","30.02","88","0.6","3.6","0.00","0.00"
"17:19:58","50.2","33.3","52.1","30.02","88","0","0","0.00","0.00"
"17:24:57","50.4","33.4","51.9","30.02","88","0","0","0.00","0.00"
"17:29:56","50.7","33.8","52.1","30.02","88","0","0","0.00","0.00"
"17:34:59","51","32.8","49.6","30.01","88","0","0","0.00","0.00"
"17:39:59","51","32.2","48.5","30.01","88","0","0","0.00","0.00"
"17:44:58","50.7","31.8","48.1","30.01","88","0","0","0.00","0.00"
"17:49:58","50.4","32.2","49.6","30.01","88","0","0","0.00","0.00"
"17:54:57","49.9","31.3","48.6","30.01","88","0","0","0.00","0.00"
"17:59:56","49.3","32.3","51.9","30.01","88","0","0","0.00","0.00"
"18:04:56","48.6","32.8","54.2","30.00","88","0","0","0.00","0.00"
"18:09:58","47.9","33.4","57.2","30.00","88","0","0","0.00","0.00"
"18:14:58","47.2","33.5","58.8","30.01","88","0","0","0.00","0.00"
"18:19:57","46.6","33.2","59.5","30.01","88","0","0","0.00","0.00"
"18:24:57","46.1","33.2","60.7","30.01","88","0","0","0.00","0.00"
"18:29:56","45.6","33.4","62.4","30.01","88","0","0","0.00","0.00"
"18:34:56","45.1","33.4","63.4","30.01","88","0","0","0.00","0.00"
"18:39:56","44.6","33.4","64.4","30.01","88","0","0","0.00","0.00"
"18:44:56","44.1","33.1","65","30.02","88","0","0","0.00","0.00"
"18:49:59","43.6","32.9","65.6","30.02","88","0","0","0.00","0.00"
"18:54:58","43.2","33.3","67.8","30.02","88","0","0","0.00","0.00"
"18:59:57","42.9","33.1","68","30.02","88","0","0","0.00","0.00"
"19:04:57","42.6","33","68.7","30.02","88","0","0","0.00","0.00"
"19:09:59","42.4","33.1","69.7","30.02","88","0","0","0.00","0.00"
"19:14:56","42.1","33.4","70.9","30.02","88","0","0","0.00","0.00"
"19:19:59","41.9","33.2","71","30.02","88","0","0","0.00","0.00"
"19:24:58","41.6","33.1","71.7","30.02","88","0","0","0.00","0.00"
"19:29:57","41.3","33.3","73.1","30.02","88","0","0","0.00","0.00"
"19:34:57","40.9","33.1","73.5","30.02","88","0","0","0.00","0.00"
"19:39:57","40.6","33.3","75","30.02","88","0","0","0.00","0.00"
"19:44:56","40.3","33.3","75.8","30.03","88","0","0","0.00","0.00"
"19:49:59","40","33.4","77","30.03","88","0","0","0.00","0.00"
"19:54:59","39.8","33.2","77.2","30.03","88","0","0","0.00","0.00"
"19:59:58","39.5","33.2","77.8","30.03","88","0","0","0.00","0.00"
"20:04:57","39.2","33","78.3","30.02","88","0","0","0.00","0.00"
"20:09:56","39","33","79.1","30.02","88","0","0","0.00","0.00"
"20:14:56","38.8","33.2","80","30.02","88","0","0","0.00","0.00"
"20:19:59","38.6","33","80","30.02","88","0","0","0.00","0.00"
"20:24:58","38.5","32.9","80","30.02","88","0","0","0.00","0.00"
"20:29:57","38.4","33.1","80.8","30.02","88","0","0","0.00","0.00"
"20:34:56","38.2","33.1","81.6","30.01","88","0","0","0.00","0.00"
"20:39:57","37.9","32.8","81.8","30.01","88","0","0","0.00","0.00"
"20:44:56","37.7","33","83","30.02","88","0","0","0.00","0.00"
"20:49:59","37.5","33.1","84","30.02","88","0","0","0.00","0.00"
"20:54:58","37.4","33","84","30.02","88","0","0","0.00","0.00"
"20:59:57","37.4","33.2","84.7","30.02","80","0","0","0.00","0.00"
"21:04:57","37.4","33.3","84.9","30.02","64","1.7","3.6","0.00","0.00"
"21:09:59","37.5","33.1","84","30.02","64","1.8","3.5","0.00","0.00"
"21:14:56","37.7","33.2","83.7","30.02","64","1.4","3.6","0.00","0.00"
"21:19:59","37.8","33.3","83.7","30.02","64","1.4","2.4","0.00","0.00"
"21:24:58","37.9","33.2","83.1","30.02","64","0.1","1.2","0.00","0.00"
"21:29:57","37.9","33.2","83","30.02","64","0","0","0.00","0.00"
"21:34:57","37.9","33.2","83","30.02","64","1","2.4","0.00","0.00"
"21:39:57","38.1","33.4","83","30.02","64","0","1.2","0.00","0.00"
"21:44:56","38.2","33.5","83","30.02","64","0","0","0.00","0.00"
"21:49:59","38.2","33.5","83","30.02","64","0","0","0.00","0.00"
"21:54:58","38.3","33.5","82.8","30.02","64","0","0","0.00","0.00"
"21:59:57","38.4","33.4","82.1","30.02","64","0","0","0.00","0.00"
"22:04:57","38.6","33.6","82","30.02","64","0","0","0.00","0.00"
"22:09:56","38.8","33.8","82","30.02","64","0","0","0.00","0.00"
"22:14:56","39","34","82","30.02","64","0","0","0.00","0.00"
"22:19:59","39.1","33.9","81.2","30.02","64","0","0","0.00","0.00"
"22:24:59","39.3","33.9","80.7","30.02","64","0","0","0.00","0.00"
"22:29:58","39.4","33.7","80","30.02","64","0","0","0.00","0.00"
"22:34:57","39.5","33.8","80","30.02","64","0","0","0.00","0.00"
"22:39:58","39.5","33.5","79.1","30.02","64","0","0","0.00","0.00"
"22:44:57","39.4","33.5","79.2","30.02","64","0","0","0.00","0.00"
"22:49:56","39.3","33.5","79.5","30.02","64","0","0","0.00","0.00"
"22:54:59","39.3","33.3","79","30.02","64","0","0","0.00","0.00"
"22:59:58","39.3","33.3","79","30.02","64","0","0","0.00","0.00"
"23:04:58","39.3","33.4","79.2","30.02","64","0","0","0.00","0.00"
"23:09:56","39.3","33.6","80","30.02","64","0","0","0.00","0.00"
"23:14:57","39.4","33.5","79.5","30.02","64","0","0","0.00","0.00"
"23:19:56","39.3","33.5","79.5","30.02","64","0","0","0.00","0.00"
"23:24:59","39.2","33.2","79","30.02","64","0","0","0.00","0.00"
"23:29:58","39.2","33.2","79","30.02","64","0","0","0.00","0.00"
"23:34:58","39.1","33.5","79.9","30.02","64","0","0","0.00","0.00"
"23:39:58","39.1","33.5","80","30.02","64","0","0","0.00","0.00"
"23:44:58","39.2","33.7","80.4","30.02","64","0","0","0.00","0.00"
